フェイ彗星

4P/Faye (2021)

English version
Home page
Updated on September 18, 2021

---------------------------------------------------------------------

・ プロフィール

・ 写真集

・ 軌道要素

Epoch 2021 July 5.0 TT = JDT 2459400.5
T 2021 Sept. 8.82568 TT                                 Rudenko
q   1.6188599            (2000.0)            P               Q
n   0.13180507     Peri.  206.99394     +0.76786861     -0.63984826
a   3.8239715      Node   192.93170     +0.61002846     +0.74520535
e   0.5766548      Incl.    8.00815     +0.19555838     +0.18778495
P   7.48
From 4717 observations 2000 Jan. 9-2021 June 24, mean residual 0".8.
     Nongravitational parameters A1 = +0.56, A2 = -0.0328.

・ 星図

・ 光度変化

        m1 =   5.5 + 5 logΔ + 21.0 log r  [   ,240]  (              〜2022年 5月 7日)
        m1 =  10.3 + 5 logΔ + 10.0 log r  [240,   ]  (2022年 5月 7日〜              )

---------------------------------------------------------------------

軌道要素はM.P.E.C. 2021-N06に掲載されたものです。
星図はステラナビゲータ Ver.10 (アストロアーツ) で作成したものです。
光度グラフはComet for Windowsで作成したものです。

---------------------------------------------------------------------

Copyright(C) Seiichi Yoshida (comet@aerith.net). All rights reserved.